Regional Weather Roundup
Issued by NWS Burlington, VT

Home | Current Version | Previous Version | Text Only | Print | Product List | Glossary On
Versions: 1 2 3 4 5 6 7 8 9 10 11 12 13 14 15 16 17 18 19 20 21 22 23 24 25 26 27 28 29 30 31 32 33 34 35 36 37 38 39 40 41 42 43 44 45 46 47 48 49 50
000
ASUS41 KBTV 190530
RWRBTV
VERMONT REGIONAL WEATHER ROUNDUP
NATIONAL WEATHER SERVICE BURLINGTON VT
100 AM EDT SAT AUG 19 2017

NOTE: "FAIR" INDICATES FEW OR NO CLOUDS BELOW 12,000 FEET WITH NO
SIGNIFICANT WEATHER AND/OR OBSTRUCTIONS TO VISIBILITY.

* THESE REPORTS ARE NOT UNDER NWS QUALITY CONTROL AND/OR DO NOT
  REPORT WEATHER SUCH AS PRECIPITATION AND FOG.

VTZ001>019-190600-
_____VERMONT_____


CITY           SKY/WX    TMP DP  RH WIND       PRES   REMARKS
BURLINGTON     CLOUDY    71  70  96 SE6       29.75F
MONTPELIER     CLOUDY    65  65 100 CALM      29.83F FOG
MORRISVILLE    LGT RAIN  65  64  97 S5        29.79F
ST. JOHNSBURY*   N/A     65  65 100 MISG      29.79F
LYNDONVILLE*   CLOUDY    63  62  96 S3        29.84F
MIDDLEBURY*    CLOUDY    71  70  97 CALM      29.76S
RUTLAND*       LGT RAIN  69  67  93 SE7       29.78F
SPRINGFIELD    CLOUDY    66  64  93 CALM      29.79F FOG
HIGHGATE*      MOCLDY    69  68  98 S3        29.74R
NEWPORT*       DRIZZLE   65  63  93 S5        29.80F
BENNINGTON     CLOUDY    72  69  90 SW6       29.79F
SUTTON*          N/A     63 N/A N/A MISG        N/A
ISLAND POND*     N/A     63 N/A N/A E2          N/A
GALLUP MILLS*    N/A     61 N/A N/A MISG        N/A
UNION VILLAGE*   N/A     64 N/A N/A MISG        N/A
MT. MANSFIELD*   N/A     61 N/A N/A W24         N/A

_____LAKE CHAMPLAIN_____


CITY           SKY/WX    TMP DP  RH WIND       PRES   REMARKS
BURTON ISLAND*   N/A     72  70  94 S10         N/A
COLCHESTER RF*   N/A     72  70  94 SE5         N/A
DIAMOND ISL*     N/A     73  72  94 SW1         N/A

$$

NYZ007-026>031-035-052-083-087-190600-
_____NORTHERN NEW YORK_____


CITY           SKY/WX    TMP DP  RH WIND       PRES   REMARKS
PLATTSBURGH    FAIR      69  67  93 S3        29.74S
SARANAC LAKE   CLOUDY    66  66 100 SW5       29.80F
MASSENA        FAIR      71  66  84 S8        29.73S
OGDENSBURG*    FAIR      70  66  87 SW6       29.73S
POTSDAM*       MOCLDY    72  72 100 SW8       29.74F
STARK FALLS*     N/A     68 N/A N/A SW6         N/A
WATERTOWN      MOCLDY    73  67  81 SW13G21   29.76S
FT DRUM        MOCLDY    71  64  80 SW9       29.77S
ALBANY         CLOUDY    72  65  78 W8        29.79F
GLENS FALLS    MOCLDY    72  68  87 W9        29.76F

$$
NHZ002-005-011-190600-
_____NEW HAMPSHIRE_____


CITY           SKY/WX    TMP DP  RH WIND       PRES   REMARKS
LEBANON        CLOUDY    66  64  93 N6        29.79F
KEENE            N/A    N/A N/A N/A MISG        N/A
MT WASHINGTON  LGT RAIN  54  54 100 W30G37      N/A  VSB 0
PLYMOUTH       CLOUDY    61  60  96 CALM      29.81F
WHITEFIELD     MOCLDY    61  57  87 NW5       29.82F

$$

_____REGIONAL QUEBEC LOCATIONS_____


CITY           SKY/WX    TMP DP  RH WIND       PRES   REMARKS
MONTREAL       PTCLDY    66  64  94 CALM      29.70F
QUEBEC CITY    PTCLDY    61  59  94 E13G21    29.77F
SHERBROOKE     MOCLDY    59  59 100 NE2       29.78F

_____REGIONAL ONTARIO LOCATIONS_____


CITY           SKY/WX    TMP DP  RH WIND       PRES   REMARKS
OTTAWA         MOCLDY    70  66  88 SW6       29.71S

______KEY______
VSB  - VISIBILITY IN MILES
WCI  - WIND CHILL INDEX
HX   - HEAT INDEX
$$
NNNN



USA.gov is the U.S. government's official web portal to all federal, state and local government web resources and services.